1498636800.48,24712,18.94,73726.5,16.05,-6.51,-6.27,0,*4C
1498636801.72,24713,18.94,73726.3,16.05,-3.47,-3.27,0,*4A
1498636802.92,24714,18.94,73724.3,16.11,-2.95,-3.31,0,*41
1498636804.15,24715,18.94,73724.5,16.13,-6.77,-8.37,0,*47
1498636805.38,24716,18.94,73730.5,16.13,-8.55,-10.45,0,*76
1498636806.6,24717,18.94,73730.5,16.11,-6.81,-8.11,0,*4A
1498636807.87,24718,18.94,73724.0,16.13,-4.81,-5.11,0,*48
1498636809.12,24719,18.94,73716.8,16.17,-4.65,-4.93,0,*4C
1498636810.4,24720,18.94,73712.8,16.17,-5.93,-5.61,0,*42
1498636811.6,24721,18.94,73708.0,16.19,-6.89,-6.89,0,*40
1498636812.84,24722,18.94,73714.3,16.19,-9.01,-9.45,0,*43
1498636814.12,24723,18.94,73714.3,16.17,-10.41,-10.71,0,*4F
1498636815.37,24724,18.94,73716.3,16.15,-10.67,-10.27,0,*4D
1498636816.58,24725,18.94,73718.0,16.11,-10.19,-10.49,0,*49
1498636817.83,24726,18.94,73716.3,16.05,-10.67,-10.57,0,*49
1498636819.05,24727,18.94,73724.0,16.03,-8.93,-9.15,0,*42
1498636820.26,24728,18.94,73726.0,16.03,-6.69,-7.57,0,*4E
1498636821.45,24729,18.94,73724.3,16.03,-7.11,-7.23,0,*42
1498636822.69,24730,18.94,73726.3,16.05,-6.69,-7.43,0,*44
1498636823.96,24731,18.94,73728.5,16.05,-8.51,-8.07,0,*4F
1498636825.15,24732,18.94,73728.3,16.07,-7.23,-6.47,0,*4E
1498636826.42,24733,18.94,73734.0,16.13,-7.43,-7.05,0,*4B
1498636827.65,24734,18.94,73732.3,16.13,-8.17,-7.83,0,*4C
1498636828.84,24735,18.94,73734.3,16.15,-7.53,-7.53,0,*49
1498636830.09,24736,19.0,73740.3,16.17,-7.77,-8.33,0,*47
1498636831.33,24737,18.94,73746.5,16.21,-7.61,-9.31,0,*47
1498636832.58,24738,18.94,73746.0,16.21,-9.41,-11.01,0,*7E
1498636833.81,24739,18.94,73742.0,16.27,-7.91,-9.27,0,*47
1498636835.08,24740,18.94,73746.8,16.29,-7.99,-9.53,0,*4C
1498636836.29,24741,18.94,73744.3,16.31,-7.23,-8.85,0,*4F
1498636837.51,24742,18.94,73752.5,16.37,-6.73,-8.85,0,*4E
1498636838.75,24743,18.94,73754.5,16.41,-6.69,-8.81,0,*41
1498636839.95,24744,18.94,73754.8,16.45,-8.25,-9.97,0,*42
1498636841.16,24745,18.94,73742.8,16.49,-8.59,-10.35,0,*74
1498636842.37,24746,18.94,73740.0,16.53,-9.93,-11.85,0,*71
1498636843.64,24747,18.94,73736.8,16.59,-10.63,-12.03,0,*40
1498636844.89,24748,18.94,73732.8,16.61,-11.97,-13.33,0,*4C
1498636846.14,24749,18.94,73728.0,16.61,-11.89,-13.87,0,*4D
1498636847.38,24750,18.94,73704.5,16.65,-12.53,-15.29,0,*47
1498636848.64,24751,18.94,73700.5,16.63,-17.07,-19.47,0,*40
1498636849.89,24752,18.94,73704.3,16.55,-13.83,-13.69,0,*48
1498636851.15,24753,18.94,73722.5,16.59,-5.85,-7.15,0,*4A
1498636852.36,24754,18.94,73726.8,16.55,-7.49,-8.97,0,*46
1498636853.58,24755,18.94,73730.0,16.51,-6.47,-8.55,0,*42
1498636854.77,24756,18.94,73724.0,16.53,-8.29,-8.41,0,*40
1498636855.98,24757,18.94,73718.5,16.49,-8.29,-8.03,0,*4C
1498636857.24,24758,18.94,73710.8,16.47,-5.31,-4.41,0,*43
1498636858.49,24759,18.94,73716.8,16.47,-4.89,-4.13,0,*47
1498636859.68,24760,18.94,73734.0,16.43,-6.05,-5.35,0,*4A
1498636860.91,24761,18.94,73732.3,16.43,-6.97,-7.23,0,*45
1498636862.13,24762,18.94,73720.0,16.43,-8.81,-9.67,0,*41
1498636863.35,24763,19.0,73720.5,16.39,-9.53,-9.71,0,*44
1498636864.55,24764,18.94,73716.0,16.39,-8.97,-8.71,0,*4B
1498636865.78,24765,18.94,73728.8,16.39,-9.57,-10.27,0,*7D
1498636866.98,24766,18.94,73734.0,16.39,-8.89,-9.97,0,*4F
1498636868.2,24767,18.94,73732.3,16.37,-8.21,-8.75,0,*4F
1498636869.42,24768,18.94,73736.0,16.37,-6.47,-6.31,0,*40
1498636870.62,24769,19.0,73740.8,16.39,-5.55,-6.09,0,*44
1498636871.88,24770,18.94,73736.0,16.41,-6.51,-5.27,0,*4B
1498636873.08,24771,18.94,73728.0,16.45,-5.97,-4.57,0,*41
1498636874.32,24772,18.94,73730.0,16.47,-8.85,-6.31,0,*4C
1498636875.51,24773,18.94,73726.5,16.49,-8.33,-6.05,0,*49
1498636876.74,24774,18.94,73720.5,16.49,-10.35,-8.11,0,*7A
1498636877.95,24775,18.94,73730.8,16.49,-9.61,-6.69,0,*43
1498636879.14,24776,18.94,73738.0,16.49,-9.93,-7.53,0,*45
1498636880.41,24777,18.94,73744.3,16.47,-9.41,-6.97,0,*4C
1498636881.7,24778,18.94,73748.5,16.47,-8.07,-5.85,0,*40
1498636882.9,24779,18.94,73750.3,16.49,-6.85,-4.21,0,*44
1498636884.13,24780,18.94,73744.0,16.49,-5.93,-2.31,0,*41
1498636885.37,24781,18.94,73744.3,16.59,-4.77,-1.33,0,*4B
1498636886.59,24782,18.94,73742.8,16.63,-3.83,-1.79,0,*43
1498636887.82,24783,18.94,73740.5,16.69,-3.47,-1.67,0,*4F
1498636889.06,24784,18.94,73738.5,16.75,-2.67,-1.17,0,*41
1498636890.3,24785,19.0,73742.5,16.81,-1.55,-1.43,0,*48
1498636891.51,24786,18.94,73742.0,16.85,-1.67,-2.27,0,*4F
1498636892.77,24787,18.94,73744.0,16.85,-0.93,-1.95,0,*7E
1498636894.03,24788,18.94,73750.3,16.89,1.55,1.21,0,*49
1498636895.24,24789,18.94,73748.5,16.95,2.65,1.93,0,*4C
1498636896.48,24790,18.94,73740.8,16.97,1.09,-0.49,0,*54
1498636897.7,24791,18.94,73738.5,16.99,-1.09,-2.83,0,*42
1498636898.92,24792,18.94,73744.0,16.97,-0.77,-1.51,0,*7B
1498636900.13,24793,19.0,73742.8,16.95,-1.01,-2.27,0,*4A
1498636901.34,24794,18.94,73732.3,16.87,-1.17,-2.35,0,*4A
1498636902.53,24795,18.94,73718.3,16.83,-1.63,-2.43,0,*4D
1498636903.74,24796,18.94,73720.8,16.75,-2.39,-3.31,0,*4F
1498636904.96,24797,18.94,73724.8,16.65,-1.29,-1.87,0,*42
1498636906.18,24798,18.94,73724.3,16.59,-0.11,-0.37,0,*42
1498636907.41,24799,18.94,73722.0,16.51,0.05,-0.85,0,*5A
1498636908.61,24800,18.94,73724.8,16.45,-1.25,-2.39,0,*4B
1498636909.83,24801,18.94,73726.5,16.37,-0.81,-2.19,0,*72
1498636911.08,24802,18.94,73722.8,16.29,-1.13,-3.19,0,*45
1498636912.3,24803,18.94,73728.0,16.19,-1.09,-3.83,0,*4F
1498636913.48,24804,18.94,73734.3,16.11,-0.19,-3.31,0,*79
1498636914.71,24805,18.94,73732.0,16.11,0.59,-2.67,0,*53
1498636915.97,24806,18.94,73728.8,16.05,-1.47,-4.81,0,*48
1498636917.17,24807,19.0,73732.0,15.99,-1.33,-3.79,0,*4C
1498636918.41,24808,18.94,73734.8,15.97,0.37,-1.13,0,*5B
1498636919.58,24809,18.94,73746.8,15.95,0.09,-1.25,0,*60
1498636920.77,24810,18.94,73748.3,15.95,0.37,-0.57,0,*61
1498636921.95,24811,19.0,73760.3,15.95,-0.57,-0.37,0,*4D
1498636923.12,24812,18.94,73758.5,15.95,-0.77,0.09,0,*5C
1498636924.34,24813,18.94,73754.5,15.95,-0.97,0.17,0,*6C
1498636925.58,24814,19.0,73758.5,15.99,-2.67,-1.05,0,*45
1498636926.82,24815,18.94,73756.3,15.97,-4.61,-2.63,0,*49
1498636928.04,24816,18.94,73750.8,15.99,-3.87,-1.47,0,*4E
1498636929.21,24817,19.0,73742.5,15.99,-2.83,0.05,0,*60
1498636930.44,24818,18.94,73734.5,16.05,-2.39,0.75,0,*5F
1498636931.63,24819,18.94,73730.8,16.07,-3.07,0.41,0,*57
1498636932.86,24820,18.94,73732.0,16.13,-3.79,-0.29,0,*72
1498636934.08,24821,18.94,73730.5,16.13,-2.95,0.43,0,*51
1498636935.32,24822,18.94,73734.0,16.15,-2.63,0.37,0,*5E
1498636936.56,24823,19.0,73730.0,16.21,-1.91,1.01,0,*62
1498636937.79,24824,18.94,73726.8,16.27,-2.71,-0.11,0,*73
1498636939.02,24825,18.94,73724.8,16.29,-3.95,-1.25,0,*41
1498636940.28,24826,18.94,73734.0,16.37,-2.11,0.25,0,*5C
1498636941.5,24827,18.94,73736.0,16.41,-3.03,-0.77,0,*74
1498636942.73,24828,19.0,73742.5,16.45,-4.17,-2.51,0,*4B
1498636943.98,24829,18.94,73732.3,16.51,-5.69,-4.37,0,*41
1498636945.22,24830,18.94,73730.3,16.53,-11.23,-10.41,0,*44
1498636946.45,24831,18.94,73710.8,16.53,-14.65,-13.33,0,*44
1498636947.66,24832,18.94,73712.5,16.49,-12.29,-10.49,0,*4C
1498636948.88,24833,18.94,73712.5,16.47,-10.49,-8.25,0,*74
1498636950.11,24834,18.94,73718.8,16.49,-9.41,-6.31,0,*46
1498636951.35,24835,18.94,73706.3,16.53,-14.05,-10.97,0,*4B
1498636952.56,24836,18.94,73710.3,16.53,-12.25,-9.75,0,*78
1498636953.78,24837,19.0,73708.8,16.53,-10.53,-7.65,0,*75
1498636954.97,24838,19.0,73712.8,16.53,-10.85,-8.17,0,*7B
1498636956.25,24839,19.0,73706.5,16.55,-12.53,-9.49,0,*7F
1498636957.52,24840,18.94,73708.0,16.55,-10.75,-7.69,0,*7B
1498636958.78,24841,18.94,73710.0,16.59,-9.15,-6.31,0,*44
1498636960.03,24842,19.0,73718.0,16.59,-10.01,-7.31,0,*7B
1498636961.28,24843,18.94,73714.3,16.59,-6.63,-4.37,0,*4C
1498636962.54,24844,18.94,73710.3,16.63,-4.01,-1.95,0,*49
1498636963.76,24845,18.94,73708.0,16.63,-4.09,-2.19,0,*47
1498636964.99,24846,18.94,73706.0,16.65,-3.83,-2.51,0,*4B
1498636966.23,24847,18.94,73710.0,16.67,-0.11,0.71,0,*6D
1498636967.46,24848,19.0,73710.0,16.71,1.01,1.29,0,*44
1498636968.7,24849,18.94,73706.5,16.71,1.17,0.43,0,*7F
1498636969.9,24850,18.94,73702.3,16.71,-0.07,-1.33,0,*41
1498636971.09,24851,18.94,73696.0,16.69,-0.81,-3.19,0,*7D
1498636972.29,24852,18.94,73692.8,16.65,-0.53,-3.55,0,*75
1498636973.52,24853,18.94,73696.3,16.61,-1.33,-4.85,0,*4D
1498636974.74,24854,19.0,73706.8,16.49,-1.43,-4.99,0,*4A
1498636975.94,24855,19.0,73718.3,16.45,-0.19,-3.27,0,*7B
1498636977.14,24856,18.94,73714.3,16.39,-1.33,-4.49,0,*45
1498636978.34,24857,19.0,73714.0,16.31,-3.19,-6.85,0,*44
1498636979.59,24858,18.94,73720.8,16.21,-5.85,-9.79,0,*45
1498636980.85,24859,19.0,73698.5,16.15,-6.23,-11.07,0,*7C
1498636982.09,24860,19.0,73696.5,16.07,-12.61,-18.01,0,*49
1498636983.36,24861,18.94,73710.8,15.93,-11.37,-16.13,0,*4B
1498636984.6,24862,19.0,73720.8,15.89,-7.77,-12.03,0,*75
1498636985.84,24863,18.94,73720.5,15.81,-6.69,-10.71,0,*75
1498636987.08,24864,18.94,73722.3,15.79,-5.03,-8.71,0,*43
1498636988.31,24865,18.94,73720.3,15.81,-4.81,-8.21,0,*4B
1498636989.53,24866,18.94,73726.0,15.81,-4.33,-7.49,0,*40
1498636990.74,24867,19.0,73726.5,15.85,-4.29,-6.85,0,*4F
1498636991.92,24868,18.94,73722.5,15.91,-4.99,-6.55,0,*43
1498636993.11,24869,18.94,73722.0,15.95,-5.55,-6.05,0,*42
1498636994.35,24870,19.0,73724.3,15.95,-8.51,-8.03,0,*4B
1498636995.59,24871,18.94,73722.3,15.93,-10.15,-8.51,0,*72
1498636996.81,24872,19.0,73720.3,15.93,-10.97,-8.37,0,*7B
1498636998.02,24873,19.0,73724.5,15.83,-9.45,-6.13,0,*44
1498636999.26,24874,19.0,73724.0,15.85,-6.63,-2.99,0,*48
1498637000.49,24875,19.0,73730.0,15.85,-3.11,0.87,0,*59
1498637001.66,24876,18.94,73732.3,15.91,-1.51,2.95,0,*68
1498637002.84,24877,19.0,73732.0,15.95,-0.33,4.33,0,*52
1498637004.01,24878,19.0,73732.8,15.99,2.35,6.75,0,*48
1498637005.22,24879,19.0,73732.0,16.03,3.59,7.61,0,*46
1498637006.44,24880,19.0,73736.0,16.11,3.45,6.91,0,*40
1498637007.68,24881,19.0,73734.5,16.13,2.39,5.45,0,*43
1498637008.91,24882,19.0,73738.8,16.13,2.61,5.23,0,*4D
1498637010.17,24883,18.94,73738.3,16.13,3.11,5.55,0,*4B
1498637011.44,24884,19.0,73740.5,16.13,5.01,7.11,0,*49
1498637012.64,24885,19.0,73736.5,16.13,5.45,7.37,0,*4C
1498637013.89,24886,18.94,73738.0,16.17,6.51,8.01,0,*47
1498637015.13,24887,19.0,73738.5,16.17,7.09,8.33,0,*4B
1498637016.37,24888,18.94,73734.5,16.17,7.91,8.69,0,*4A
1498637017.61,24889,18.94,73736.0,16.19,8.33,8.89,0,*4C
1498637018.84,24890,18.94,73732.0,16.21,8.37,8.61,0,*4D
1498637020.06,24891,19.0,73736.8,16.19,8.23,8.37,0,*41
1498637021.28,24892,19.0,73744.5,16.19,8.05,8.33,0,*42
1498637022.51,24893,19.0,73752.5,16.21,7.51,7.91,0,*41
1498637023.72,24894,19.0,73750.5,16.19,6.75,7.27,0,*47
1498637024.96,24895,19.0,73744.0,16.21,5.07,5.81,0,*45
1498637026.15,24896,19.0,73742.5,16.19,4.19,5.07,0,*4D
1498637027.36,24897,19.0,73744.8,16.17,3.85,4.89,0,*47
1498637028.59,24898,19.0,73732.8,16.17,2.89,3.85,0,*4E
1498637029.8,24899,19.0,73728.5,16.15,3.33,4.15,0,*43
1498637031.0,24900,19.0,73728.0,16.11,4.97,5.29,0,*41
1498637032.2,24901,19.0,73726.3,16.11,4.75,4.19,0,*4E
1498637033.46,24902,19.0,73726.0,16.05,4.05,2.77,0,*41
1498637034.68,24903,19.0,73720.3,16.01,5.11,3.67,0,*40
1498637035.91,24904,19.0,73722.0,16.01,6.35,4.41,0,*41
1498637037.12,24905,19.0,73722.0,16.01,5.99,3.89,0,*46
1498637038.34,24906,18.94,73724.0,15.97,5.81,3.29,0,*4A
1498637039.54,24907,19.0,73724.8,15.97,4.45,2.27,0,*4D
1498637040.75,24908,19.0,73718.5,15.93,3.45,1.41,0,*42
1498637042.0,24909,19.0,73720.3,15.85,2.43,0.13,0,*75
1498637043.21,24910,18.94,73728.3,15.83,1.83,-1.01,0,*6B
1498637044.46,24911,18.94,73728.0,15.75,2.59,-0.85,0,*5A
1498637045.64,24912,19.0,73724.0,15.73,1.83,-1.63,0,*62
1498637046.87,24913,19.0,73724.3,15.67,0.91,-3.11,0,*53
1498637048.13,24914,19.0,73722.5,15.59,0.79,-3.55,0,*5F
1498637049.36,24915,19.0,73722.5,15.55,0.13,-4.53,0,*5F
1498637050.56,24916,18.94,73728.0,15.49,0.05,-4.93,0,*6A
1498637051.77,24917,19.0,73728.0,15.45,1.01,-3.95,0,*63
1498637052.98,24918,19.0,73744.3,15.35,1.05,-3.43,0,*64
1498637054.2,24919,19.0,73722.0,15.31,2.89,-0.97,0,*5C
1498637055.44,24920,19.0,73720.5,15.27,3.03,0.29,0,*7A
1498637056.64,24921,19.0,73714.0,15.23,2.27,0.17,0,*75
1498637057.86,24922,19.0,73718.5,15.17,2.31,0.95,0,*7C
1498637059.07,24923,19.0,73730.3,15.13,2.31,1.37,0,*40
1498637060.29,24924,19.0,73726.5,15.09,2.77,1.93,0,*40
1498637061.51,24925,19.0,73728.3,15.05,2.25,1.59,0,*4C
1498637062.75,24926,18.94,73730.5,14.99,3.97,3.81,0,*44
1498637063.96,24927,19.0,73734.3,14.95,5.19,5.11,0,*46
1498637065.17,24928,18.94,73728.5,14.99,5.95,6.29,0,*49
1498637066.4,24929,19.0,73730.8,14.99,6.65,7.09,0,*47
1498637067.61,24930,18.94,73732.3,15.03,6.75,7.09,0,*4C
1498637068.82,24931,19.0,73734.5,15.05,7.19,7.29,0,*42
1498637070.05,24932,19.0,73736.5,15.07,7.11,6.21,0,*42
1498637071.24,24933,19.0,73734.5,15.09,6.29,4.53,0,*40
1498637072.44,24934,19.0,73736.3,15.09,4.89,2.01,0,*4E
1498637073.65,24935,19.0,73736.3,15.09,4.53,1.17,0,*4C
1498637074.87,24936,19.0,73736.8,15.09,3.97,0.87,0,*78
1498637076.08,24937,19.0,73738.0,15.09,3.81,1.21,0,*43
1498637077.33,24938,19.0,73738.3,15.07,3.67,1.97,0,*47
1498637078.57,24939,19.0,73740.5,15.07,3.93,3.33,0,*41
1498637079.78,24940,19.0,73738.8,15.07,4.45,4.33,0,*44
1498637080.99,24941,19.0,73742.5,15.07,3.89,4.37,0,*46
1498637082.19,24942,18.94,73740.0,15.07,2.95,4.11,0,*4D
1498637083.42,24943,19.0,73744.8,15.07,1.89,3.89,0,*44
1498637084.65,24944,19.0,73746.0,15.07,2.69,4.49,0,*45
1498637085.85,24945,19.0,73746.8,15.11,4.23,5.41,0,*42
1498637087.06,24946,19.0,73750.0,15.09,4.79,5.45,0,*43
1498637088.29,24947,19.0,73750.3,15.11,4.67,5.11,0,*45
1498637089.5,24948,19.0,73736.0,15.11,4.19,4.81,0,*4B
1498637090.73,24949,19.0,73724.0,15.09,2.25,4.05,0,*46
1498637091.91,24950,19.0,73728.0,15.09,0.01,3.67,0,*49
1498637093.13,24951,19.0,73730.0,15.05,-3.07,2.43,0,*6B
1498637094.39,24952,19.0,73730.5,15.07,-1.83,5.05,0,*61
1498637095.63,24953,19.0,73728.0,15.13,-1.95,4.93,0,*6C
1498637096.9,24954,19.0,73724.5,15.21,-2.03,3.71,0,*6D
1498637098.16,24955,19.0,73728.8,15.25,0.51,4.71,0,*77
1498637099.4,24956,19.0,73732.3,15.29,0.21,3.33,0,*7E
1498637100.67,24957,19.0,73740.3,15.33,-1.35,2.51,0,*68
1498637101.87,24958,19.0,73740.0,15.33,-0.77,4.45,0,*53
1498637103.12,24959,19.0,73740.8,15.33,0.29,5.27,0,*71
1498637104.36,24960,19.0,73742.5,15.43,3.23,6.35,0,*45
1498637105.56,24961,19.0,73740.5,15.47,1.63,3.85,0,*48
1498637106.8,24962,19.0,73736.3,15.51,-2.63,-0.45,0,*70
1498637108.03,24963,19.0,73732.8,15.51,-0.65,1.89,0,*59
1498637109.24,24964,19.0,73734.8,15.55,-3.07,-1.33,0,*41
1498637110.49,24965,19.0,73726.5,15.55,-5.93,-5.39,0,*45
1498637111.69,24966,19.0,73720.8,15.57,-6.47,-5.55,0,*44
1498637112.93,24967,19.0,73726.0,15.61,-8.81,-6.97,0,*49
1498637114.17,24968,19.0,73722.0,15.63,-10.45,-7.69,0,*75
1498637115.42,24969,19.0,73720.8,15.67,-11.37,-10.49,0,*40
1498637116.68,24970,19.0,73730.8,15.67,-13.73,-13.01,0,*45
1498637117.93,24971,19.0,73736.5,15.67,-14.89,-14.01,0,*41
1498637119.21,24972,19.0,73736.5,15.67,-12.57,-10.75,0,*40
1498637120.39,24973,19.0,73736.8,15.69,-9.93,-8.59,0,*4A
1498637121.58,24974,19.0,73728.8,15.73,-8.67,-7.87,0,*40
1498637122.77,24975,19.0,73732.5,15.77,-8.85,-8.17,0,*4F
1498637123.97,24976,19.0,73734.8,15.81,-9.89,-9.23,0,*4E
1498637125.22,24977,19.0,73738.8,15.85,-10.79,-10.23,0,*44
1498637126.46,24978,19.0,73730.8,15.83,-10.97,-10.67,0,*4D
1498637127.68,24979,19.0,73728.8,15.89,-10.89,-10.93,0,*42
1498637128.94,24980,19.0,73724.5,15.89,-11.63,-12.39,0,*43
1498637130.19,24981,19.0,73728.3,15.83,-11.63,-12.07,0,*45
1498637131.44,24982,19.0,73732.8,15.85,-12.75,-13.07,0,*45
1498637132.69,24983,19.0,73738.8,15.83,-11.37,-12.11,0,*41
1498637133.92,24984,19.0,73734.8,15.83,-11.23,-11.93,0,*4A
1498637135.18,24985,19.0,73736.0,15.83,-11.73,-12.71,0,*41
1498637136.38,24986,19.0,73730.8,15.83,-11.23,-12.47,0,*42
1498637137.61,24987,19.0,73726.3,15.85,-13.93,-15.49,0,*45
1498637138.83,24988,19.0,73724.8,15.85,-13.47,-13.69,0,*47
1498637140.05,24989,19.0,73730.3,15.83,-11.55,-12.47,0,*4C
1498637141.28,24990,19.0,73730.3,15.81,-10.05,-10.27,0,*46
1498637142.52,24991,19.0,73732.8,15.81,-10.89,-11.73,0,*43
1498637143.76,24992,19.0,73738.5,15.81,-7.99,-7.83,0,*4F
1498637145.0,24993,19.0,73736.0,15.85,-5.97,-4.93,0,*44
1498637146.21,24994,19.0,73736.0,15.83,-4.69,-3.75,0,*4A
1498637147.41,24995,19.0,73734.8,15.85,-2.35,-3.23,0,*41
1498637148.63,24996,19.0,73738.5,15.89,-3.11,-4.21,0,*4C
1498637149.87,24997,19.0,73740.3,15.89,-1.59,-2.07,0,*41
1498637151.11,24998,19.0,73734.8,15.89,-2.35,-2.67,0,*41
1498637152.34,24999,19.0,73728.0,15.89,-3.11,-3.55,0,*47
1498637153.56,25000,19.0,73728.8,15.89,-4.85,-6.69,0,*4F
1498637154.8,25001,19.0,73724.5,15.89,-7.61,-9.27,0,*42
1498637155.99,25002,19.0,73724.5,15.83,-6.13,-9.89,0,*4B
1498637157.21,25003,19.0,73724.8,15.79,-6.13,-9.27,0,*4B
1498637158.44,25004,19.0,73720.5,15.75,-5.73,-8.21,0,*42
1498637159.67,25005,19.0,73722.0,15.73,-5.73,-7.39,0,*43
1498637160.94,25006,19.0,73720.0,15.67,-6.19,-7.91,0,*48
1498637162.21,25007,19.0,73718.5,15.63,-4.77,-5.89,0,*4C
1498637163.41,25008,19.0,73720.3,15.61,-2.99,-3.63,0,*45
1498637164.63,25009,19.0,73720.3,15.61,-2.27,-2.63,0,*40
1498637165.82,25010,19.0,73726.5,15.53,-3.11,-3.27,0,*4C
1498637167.07,25011,19.0,73732.8,15.53,-2.71,-2.75,0,*4C
1498637168.3,25012,19.0,73732.3,15.53,-0.85,-1.39,0,*7D
1498637169.55,25013,19.0,73742.3,15.55,-1.83,-2.19,0,*4C
1498637170.8,25014,19.0,73736.3,15.55,-1.99,-1.55,0,*4B
1498637172.01,25015,19.0,73730.8,15.59,0.41,1.41,0,*77
1498637173.27,25016,19.0,73728.0,15.63,1.55,3.03,0,*4D
1498637174.54,25017,19.0,73734.0,15.67,1.97,3.15,0,*41
1498637175.77,25018,19.0,73734.3,15.69,2.25,3.33,0,*4E
1498637177.02,25019,19.0,73730.8,15.67,2.21,3.15,0,*41
1498637178.22,25020,19.0,73726.8,15.69,2.95,2.73,0,*4B
1498637179.45,25021,19.0,73724.8,15.69,2.39,1.37,0,*4F
1498637180.66,25022,19.0,73728.5,15.69,0.79,-1.55,0,*53
1498637181.87,25023,19.0,73734.8,15.67,-0.45,-4.65,0,*78
1498637183.09,25024,19.0,73734.3,15.67,-0.73,-3.95,0,*72
1498637184.28,25025,19.0,73736.0,15.61,-0.73,-3.39,0,*73
1498637185.51,25026,19.0,73738.3,15.61,-0.23,-2.75,0,*7C
1498637186.77,25027,19.0,73732.5,15.63,0.13,-1.99,0,*50
1498637188.01,25028,19.0,73716.0,15.67,-2.55,-4.37,0,*47
1498637189.26,25029,19.0,73718.8,15.67,-1.33,-2.71,0,*41
1498637190.49,25030,19.0,73724.5,15.63,0.37,-0.73,0,*65
1498637191.69,25031,19.0,73726.0,15.61,-0.85,-1.25,0,*70
1498637192.9,25032,19.0,73726.5,15.57,-0.45,-0.93,0,*46
1498637194.1,25033,19.0,73726.5,15.57,2.09,1.41,0,*43
1498637195.32,25034,19.0,73714.8,15.55,1.85,0.97,0,*7B
1498637196.57,25035,19.0,73708.3,15.51,0.95,0.79,0,*4E
1498637197.79,25036,19.0,73712.0,15.53,0.83,0.83,0,*4D
1498637199.01,25037,19.0,73716.5,15.47,0.41,0.37,0,*48
1498637200.21,25038,19.0,73720.0,15.47,0.97,1.09,0,*70
1498637201.47,25039,19.0,73728.3,15.45,2.55,2.13,0,*47
1498637202.72,25040,19.0,73734.8,15.45,2.01,0.37,0,*7C
1498637203.92,25041,19.0,73736.3,15.43,1.05,-0.97,0,*5B
1498637205.13,25042,19.0,73734.0,15.43,-0.45,-2.03,0,*7F
1498637206.37,25043,19.0,73734.8,15.37,-0.41,-1.95,0,*75
1498637207.56,25044,19.0,73738.0,15.35,-1.79,-3.95,0,*48
1498637208.8,25045,19.0,73734.5,15.35,-2.59,-4.89,0,*42
1498637210.05,25046,19.0,73734.5,15.33,-2.63,-4.41,0,*4A
1498637211.31,25047,19.0,73734.8,15.33,-1.35,-2.75,0,*4A
1498637212.55,25048,19.0,73730.5,15.31,-1.99,-3.47,0,*41
1498637213.77,25049,19.0,73732.0,15.31,-1.33,-2.59,0,*4E
1498637215.01,25050,19.0,73734.3,15.29,-1.63,-1.91,0,*4D
1498637216.22,25051,19.0,73732.5,15.27,-0.11,0.21,0,*61
1498637217.42,25052,19.0,73732.8,15.29,-0.65,-0.07,0,*76
1498637218.63,25053,19.0,73730.8,15.29,-0.19,0.05,0,*53
1498637219.83,25054,19.0,73732.3,15.29,-0.81,-0.07,0,*7A
1498637221.11,25055,19.0,73724.5,15.29,-1.99,-1.39,0,*4F
1498637222.35,25056,19.0,73726.0,15.29,-2.63,-2.43,0,*44
1498637223.56,25057,19.0,73726.5,15.29,-1.63,-2.39,0,*4B
1498637224.78,25058,19.0,73728.8,15.27,-3.19,-4.85,0,*44
1498637225.97,25059,19.0,73728.5,15.23,-4.61,-7.53,0,*41
1498637227.22,25060,19.0,73732.5,15.23,-3.71,-7.01,0,*4A
1498637228.48,25061,19.0,73732.8,15.17,-1.91,-4.01,0,*43
1498637229.72,25062,19.0,73736.0,15.17,-0.33,-1.09,0,*74
1498637230.97,25063,19.0,73744.5,15.17,1.25,0.63,0,*7E
1498637232.23,25064,19.0,73750.8,15.21,1.67,1.17,0,*48
1498637233.45,25065,19.0,73758.3,15.27,0.79,0.63,0,*43
1498637234.69,25066,19.0,73744.0,15.29,0.67,0.71,0,*42
1498637235.9,25067,19.0,73750.0,15.29,-0.81,-0.15,0,*49
1498637237.17,25068,19.0,73750.3,15.33,-2.63,-1.87,0,*49
1498637238.42,25069,19.0,73746.3,15.37,-1.05,-1.67,0,*41
1498637239.63,25070,19.0,73748.0,15.45,-3.19,-3.87,0,*4F
1498637240.85,25071,19.0,73744.8,15.51,-3.19,-3.39,0,*4E
1498637242.07,25072,19.0,73748.0,15.55,-3.31,-3.35,0,*4F
1498637243.3,25073,19.0,73746.5,15.59,-3.91,-4.57,0,*4B
1498637244.56,25074,19.0,73744.8,15.63,-3.75,-5.23,0,*4D
1498637245.81,25075,19.0,73742.5,15.71,-3.03,-5.89,0,*4E
1498637247.05,25076,19.0,73738.5,15.73,-2.55,-5.31,0,*4E
1498637248.25,25077,19.0,73740.0,15.77,-1.51,-3.67,0,*49
1498637249.46,25078,19.0,73734.3,15.77,-2.11,-3.91,0,*48
1498637250.73,25079,19.0,73724.0,15.75,-1.43,-2.47,0,*45
1498637251.96,25080,19.0,73714.3,15.71,-0.53,-1.43,0,*70
1498637253.19,25081,19.0,73714.5,15.69,0.55,-0.89,0,*64
1498637254.39,25082,19.0,73712.5,15.67,0.01,-1.71,0,*6E
1498637255.64,25083,19.0,73726.3,15.59,0.41,-1.95,0,*5C
1498637256.89,25084,19.0,73726.5,15.51,1.43,-1.13,0,*6E
1498637258.12,25085,19.0,73732.5,15.45,1.83,-1.09,0,*6D
1498637259.33,25086,19.0,73732.5,15.43,2.21,-1.63,0,*6F
1498637260.53,25087,19.0,73724.5,15.39,1.83,-3.67,0,*6E
1498637261.71,25088,19.0,73712.3,15.35,0.43,-5.39,0,*5D
1498637262.91,25089,19.0,73700.8,15.27,0.43,-5.23,0,*54
1498637264.1,25090,19.0,73708.5,15.23,-0.61,-6.35,0,*71
1498637265.32,25091,19.0,73706.3,15.13,-0.11,-5.61,0,*76
1498637266.51,25092,19.0,73718.5,15.09,-2.79,-9.97,0,*47
1498637267.76,25093,19.0,73718.3,15.03,-4.85,-14.15,0,*7F
1498637269.0,25094,19.0,73716.8,14.95,-5.11,-13.43,0,*7E
1498637270.25,25095,19.0,73712.8,14.91,-2.47,-11.45,0,*7B
1498637271.48,25096,19.0,73710.0,14.87,-3.03,-11.11,0,*7F
1498637272.69,25097,19.0,73710.5,14.83,-3.07,-9.67,0,*46
1498637273.91,25098,19.0,73714.0,14.79,-1.71,-9.05,0,*4B
1498637275.16,25099,19.0,73712.8,14.75,-2.03,-8.85,0,*49
1498637276.43,25100,19.0,73708.0,14.75,-3.47,-7.65,0,*48
1498637277.7,25101,19.0,73718.5,14.71,-5.31,-7.69,0,*46
1498637278.95,25102,19.0,73714.5,14.67,-5.85,-7.83,0,*49
1498637280.14,25103,19.0,73710.3,14.65,-6.51,-8.37,0,*40
1498637281.35,25104,19.0,73708.0,14.65,-4.45,-5.77,0,*49
1498637282.59,25105,19.0,73706.8,14.65,-4.85,-5.89,0,*45
1498637283.82,25106,19.0,73716.8,14.65,-4.81,-5.73,0,*47
1498637285.07,25107,19.0,73720.8,14.67,-4.93,-5.77,0,*43
1498637286.29,25108,19.0,73734.0,14.67,-2.95,-2.87,0,*44
1498637287.5,25109,19.0,73728.3,14.67,-4.29,-3.31,0,*48
1498637288.74,25110,19.0,73734.5,14.71,-6.23,-5.47,0,*48
1498637289.96,25111,19.0,73736.0,14.79,-9.27,-8.63,0,*41
1498637291.17,25112,19.0,73730.8,14.85,-9.83,-9.27,0,*4E
1498637292.39,25113,19.0,73738.8,14.89,-9.05,-7.99,0,*46
1498637293.61,25114,19.0,73732.8,14.99,-8.93,-8.25,0,*46
1498637294.82,25115,19.0,73738.8,15.07,-9.89,-10.09,0,*7C
1498637296.07,25116,19.0,73740.5,15.09,-11.77,-12.61,0,*45
1498637297.33,25117,19.0,73740.5,15.11,-11.73,-12.93,0,*44
1498637298.56,25118,19.0,73742.5,15.15,-11.41,-12.43,0,*43
1498637299.83,25119,19.0,73742.5,15.21,-9.45,-9.11,0,*45
1498637301.05,25120,19.0,73740.3,15.27,-7.39,-6.81,0,*4A
1498637302.29,25121,19.0,73746.0,15.33,-8.21,-7.69,0,*4F
1498637303.49,25122,19.0,73742.8,15.37,-8.21,-8.55,0,*48
1498637304.68,25123,19.0,73736.8,15.43,-9.89,-10.53,0,*76
1498637305.96,25124,19.0,73740.8,15.45,-11.07,-12.11,0,*4C
1498637307.19,25125,19.0,73742.8,15.47,-11.33,-12.43,0,*4F
1498637308.42,25126,19.0,73738.3,15.47,-12.71,-13.19,0,*47
1498637309.7,25127,19.0,73734.3,15.51,-11.55,-11.73,0,*4A
1498637310.96,25128,19.0,73738.0,15.53,-11.81,-11.89,0,*4B
1498637312.19,25129,19.0,73738.3,15.53,-12.07,-12.39,0,*4F
1498637313.47,25130,19.0,73732.8,15.55,-12.07,-12.75,0,*49
1498637314.73,25131,19.0,73738.0,15.55,-11.89,-12.29,0,*44
1498637315.96,25132,19.0,73740.3,15.57,-11.23,-12.07,0,*49